星链-1148 (STARLINK-1148 )

导读 | 星芒AI

STARLINK-1148 是 SpaceX 星链计划中的一颗低轨通信卫星,属于第 11 批部署的星链卫星群。该卫星于 2021 年 5 月 28 日由猎鹰 9 号火箭送入近地轨道,旨在为全球提供高速互联网服务。它运行在约 550 公里的高度,设计寿命约为 5 年。STARLINK-1148 采用先进通信技术,支持高速数据传输和低延迟,是 SpaceX 构建全球卫星互联网网络的重要组成部分。

基本信息
目录编号:
45052
目录名称:
STARLINK-1148
国际标识:
2020-006J
轨道中心:
EARTH
卫星名称:
星链-1148
卫星全名:
星链-1148 (STARLINK-1148 )
卫星状态:
已陨落 最后检测时间 2025-07-28
发射日期:
2020-01-29 UTC
国别 :
美国 (US)
星等 :
--
轨道信息
数据来源 国际轨道数据
星历时间: 2025-07-29T06:12:43+0800
轨道信息已过期92天
半长轴: 6514.911km
偏心率: 0.0005276
轨道倾角: 53.026°
近地点辐角 236.477°
升交点赤经 99.512°
平近点角 214.363°
近地点: 133.338km
远地点: 140.214km
周期: 87.221分钟
每日圈数: 16.509735
详细信息
固有亮度:
5
最大亮度:
2.5
卫星平台:
Starlink V1.0
覆盖范围:
全球
运营商:
太空探索技术公司
运营商所在国:
美国
制造商(研发单位):
太空探索技术公司
制造商所在国:
美国
使用方式:
暂无
卫星简介
星链(Starlink)计划是由太空探索技术公司(SpaceX)提出的一个巨型低轨卫星互联网星座项目,计划在2019年至2024年间在太空搭建由约1.2万颗卫星组成的“星链”网络,其中1584颗将部署在地球上空550千米处的近地轨道,并从2020年开始工作。该卫星仍在工作。